Temperature
10 10 10 10 11 11 11 10 10 10 10 10 10 10 10 9 9 10 10 10 10 10 10 10 10 9 9 9 9 9 9 9 9 8 8 8 8 8 8 8 8 8 8
9 9 9 10 10 10 10 10 10 10 10 10 10 9 9 9 9 9 9 9 9 9 9 9 9 9 9 9 9 9 9 8 8 8 8 7 7 7 8 8 8 8 8
8 8 9 9 9 9 9 9 9 9 9 9 9 9 9 9 9 9 9 9 9 9 9 9 9 9 9 9 9 8 9 8 8 8 8 8 7 7 7 7 7 7 7
7 7 8 8 8 9 8 8 9 9 9 9 9 9 9 9 9 8 8 8 8 9 9 9 8 8 8 8 8 8 8 8 8 8 8 8 8 7 7 7 7 7 7
6 6 7 7 8 8 8 8 8 8 8 8 8 8 8 8 8 8 8 8 8 8 8 8 8 8 8 8 8 8 8 8 8 8 7 7 7 7 7 7 7 7 7
5 6 6 7 7 7 7 7 7 7 8 8 8 8 8 8 8 8 8 8 8 8 7 8 7 7 7 7 7 7 7 7 7 7 7 7 7 7 7 7 7 7 7
4 5 5 6 6 6 6 7 7 7 7 7 7 7 7 7 7 7 7 7 7 7 7 7 7 7 7 7 7 7 7 7 7 7 7 7 7 7 7 7 6 6 6
3 4 4 5 5 5 5 6 6 6 6 6 7 7 7 7 7 7 7 7 7 7 7 7 7 7 7 7 7 7 7 7 7 6 6 6 6 6 6 6 6 6 6
3 3 3 4 4 4 5 5 5 5 5 6 6 6 6 6 6 6 6 6 6 6 6 6 6 6 6 6 6 6 6 6 6 6 6 6 6 6 6 6 6 6 5
2 2 3 3 3 4 4 4 4 5 5 5 5 5 6 6 6 6 6 6 6 6 6 6 6 6 6 6 6 6 6 6 6 6 6 6 5 5 5 5 5 5 5
1 2 2 2 3 3 3 3 3 4 4 4 4 4 5 5 5 5 5 5 5 5 5 5 5 5 6 5 5 5 5 5 5 5 5 5 5 5 5 5 5 4 4
1 1 1 1 2 2 2 3 3 3 3 3 4 4 4 4 4 5 5 5 5 5 5 5 5 5 5 5 5 5 5 5 5 5 5 5 5 4 4 4 4 4 4
-0 0 0 0 1 1 1 2 2 2 2 3 3 4 4 4 4 4 4 4 4 4 4 4 4 4 4 4 5 5 5 5 5 5 4 4 4 4 4 4 4 4 3
-1 -1 -0 -0 0 0 1 1 1 2 2 2 3 3 3 3 4 4 4 4 4 4 4 4 4 4 4 4 4 4 4 4 4 4 4 4 4 4 4 3 3 3 3
-2 -1 -1 -1 -1 -0 0 0 1 1 1 2 2 2 2 3 3 3 3 3 3 3 4 4 4 4 4 3 3 3 4 4 4 4 3 3 3 3 3 3 3 3 3
-2 -2 -2 -2 -1 -1 -1 -0 0 0 0 1 1 2 2 2 2 3 3 3 3 3 3 3 3 3 3 3 3 3 3 3 3 3 3 3 3 3 3 2 2 2 2
-3 -3 -3 -3 -2 -2 -1 -1 -1 -0 -0 0 1 1 1 1 2 2 2 2 2 3 3 3 3 3 3 3 3 2 2 2 2 3 3 2 2 2 2 2 2 2 2
-3 -3 -3 -3 -3 -2 -2 -2 -1 -1 -0 -0 0 0 1 1 1 1 1 2 2 2 2 2 2 2 2 2 2 2 2 2 2 2 2 2 2 2 2 2 2 2 2
-3 -3 -3 -3 -3 -3 -2 -2 -2 -1 -1 -1 -0 0 0 0 0 1 1 1 1 2 2 1 1 1 2 2 2 1 1 1 1 1 1 1 1 1 1 1 1 1 1
-4 -4 -4 -3 -3 -3 -3 -2 -2 -2 -1 -1 -1 -1 -0 -0 -0 0 0 1 1 1 1 1 1 1 1 1 1 1 1 1 1 1 1 1 1 1 1 1 1 1 1
-4 -4 -4 -4 -3 -3 -3 -3 -2 -2 -2 -2 -1 -1 -1 -1 -1 -0 -0 -0 0 0 0 0 0 0 0 1 1 0 0 0 0 0 0 1 1 1 0 0 0 0 0
-4 -4 -4 -4 -4 -4 -4 -3 -3 -3 -3 -2 -2 -2 -1 -1 -1 -1 -1 -1 -1 -1 -0 -0 -0 -0 -0 -0 0 0 -0 0 0 0 0 0 0 0 -0 -0 -0 -0 -0
-5 -5 -5 -4 -4 -4 -4 -4 -4 -4 -3 -3 -2 -2 -2 -2 -2 -2 -2 -2 -1 -1 -1 -1 -1 -1 -1 -1 -1 -1 -0 -0 -0 -0 -0 -0 -0 -0 -1 -1 -1 -1 -1
-6 -6 -5 -5 -5 -5 -4 -4 -4 -4 -4 -3 -3 -3 -3 -3 -2 -2 -2 -2 -2 -2 -2 -2 -2 -2 -1 -1 -1 -1 -1 -1 -1 -1 -1 -1 -1 -1 -1 -1 -1 -1 -1
-6 -6 -6 -6 -6 -5 -5 -5 -5 -4 -4 -4 -4 -3 -3 -3 -3 -3 -3 -3 -3 -2 -2 -2 -2 -2 -2 -2 -2 -2 -2 -2 -2 -2 -2 -2 -2 -2 -2 -2 -2 -2 -2
-7 -7 -6 -6 -6 -6 -5 -5 -5 -5 -5 -4 -4 -4 -4 -4 -4 -3 -3 -3 -3 -3 -3 -3 -3 -3 -3 -3 -3 -3 -2 -2 -2 -2 -2 -2 -2 -2 -2 -2 -3 -3 -3
Wind_Speed
3 2 3 4 5 5 6 6 6 6 5 4 4 3 3 3 3 4 6 7 8 9 8 5 5 5 4 5 5 4 5 3 3 4 3 3 3 2 1 2 3 3 4
1 2 2 3 4 5 5 6 6 6 6 5 4 3 3 3 3 3 5 7 7 8 7 6 5 5 4 5 5 5 4 2 3 3 3 1 2 2 1 1 1 2 3
3 2 2 2 2 3 5 5 6 5 5 5 4 3 2 2 2 3 3 5 7 8 7 6 5 5 5 6 5 6 5 4 2 2 4 3 3 1 1 1 0 1 1
2 2 2 1 1 2 2 4 5 5 4 5 6 6 5 4 4 4 4 4 6 7 7 7 7 6 5 5 6 5 4 6 4 2 1 2 3 3 1 1 1 0 1
1 2 2 2 1 1 1 2 3 3 4 5 6 7 5 4 3 3 5 5 5 6 6 7 6 6 5 6 6 5 5 5 5 4 2 2 2 2 3 2 2 1 2
2 2 2 2 2 2 1 2 3 3 3 4 5 6 6 6 5 5 5 5 4 4 5 6 6 6 5 5 5 6 6 5 5 4 3 3 3 2 2 2 2 2 2
2 3 3 3 2 2 1 1 3 3 3 4 4 5 6 7 7 7 7 6 4 4 6 6 6 5 5 6 6 5 6 6 6 5 3 3 3 3 3 3 2 2 2
2 2 2 2 2 1 1 0 2 3 3 3 4 4 5 5 5 6 6 6 5 5 6 6 6 6 6 6 6 5 5 5 5 6 5 3 2 2 3 3 3 2 2
4 3 3 3 2 2 2 1 1 2 3 3 3 4 5 5 5 5 5 5 5 4 5 6 6 6 6 6 6 5 5 5 5 5 5 3 2 3 3 3 4 4 3
5 4 4 3 3 2 2 2 1 1 2 3 3 3 4 5 5 4 5 5 5 5 6 6 6 6 6 6 6 5 5 5 5 4 5 4 3 3 3 3 3 3 4
5 4 4 4 3 3 3 3 2 1 1 2 2 3 3 4 4 4 5 5 5 6 6 6 7 7 6 6 6 6 6 7 5 5 6 5 4 3 3 3 3 3 3
5 5 5 4 4 4 4 4 3 2 2 2 2 2 3 4 5 5 5 5 5 6 6 6 6 6 6 6 7 7 7 7 7 6 6 5 4 4 4 3 4 3 3
6 6 5 5 4 4 4 4 3 2 2 2 1 2 3 4 5 5 5 5 5 6 6 6 6 7 6 6 6 7 6 7 7 6 7 6 6 5 4 4 4 3 3
5 6 6 6 5 5 4 4 3 3 2 2 1 1 2 3 4 4 4 5 5 6 6 6 6 6 6 6 6 6 5 5 5 5 6 6 7 7 6 5 5 4 3
7 6 6 6 6 6 5 5 4 3 3 2 2 2 2 2 3 3 4 4 5 5 5 5 5 5 5 6 7 6 6 6 5 5 5 5 6 7 7 5 5 5 4
7 7 7 6 6 6 6 6 5 4 3 2 2 2 1 1 2 3 3 4 4 4 5 5 5 5 5 7 8 7 5 5 6 5 4 4 5 7 7 7 7 7 6
6 7 7 6 6 6 5 6 5 4 3 3 3 2 1 1 1 2 3 4 4 4 4 5 5 5 5 7 8 8 6 5 5 5 5 4 4 5 5 5 5 5 7
6 6 6 6 6 6 6 5 5 4 3 3 3 2 1 1 1 2 3 3 3 3 4 4 5 4 5 7 8 7 6 5 4 5 5 5 5 5 5 4 4 4 4
5 5 5 6 6 6 6 5 5 4 4 4 3 3 2 1 1 1 1 2 3 3 3 3 4 4 4 7 7 7 4 4 4 4 4 5 5 7 7 5 5 4 3
5 5 5 6 6 6 6 5 4 4 5 5 4 3 1 0 1 1 1 1 2 2 2 2 2 3 3 5 7 7 4 4 4 3 4 6 6 7 8 6 6 6 4
6 5 5 5 5 6 6 5 5 5 5 5 4 3 2 0 0 0 1 1 2 2 2 2 1 1 1 3 5 6 4 5 4 3 3 4 7 7 7 6 6 6 4
7 6 5 5 5 5 5 5 6 6 5 4 4 4 3 2 1 1 1 1 2 2 2 2 1 0 0 1 3 5 5 5 4 4 3 4 6 6 6 5 5 6 4
6 6 5 6 6 6 5 5 6 6 5 4 4 4 4 3 2 1 1 1 1 2 1 1 1 0 0 0 2 3 3 3 3 3 4 4 4 4 3 4 4 4 3
6 6 6 6 7 7 6 6 6 6 5 4 4 4 4 3 3 2 1 1 0 1 1 1 1 0 0 0 0 0 1 1 1 2 3 3 3 2 2 2 2 2 3
6 5 5 6 7 6 6 6 6 6 5 5 4 4 4 3 3 3 2 1 1 0 1 1 1 1 1 2 2 1 1 1 2 2 2 2 2 2 1 1 1 1 1
5 5 6 6 6 6 6 7 6 5 5 4 4 3 3 3 3 3 3 4 3 3 3 2 1 0 0 0 1 1 2 3 4 3 3 2 2 2 2 2 1 1 1
Wind_Direction
211 157 161 158 150 151 153 161 161 163 155 153 156 163 176 173 167 168 170 170 168 166 161 159 161 158 163 164 154 141 137 132 130 107 80 32 37 70 80 116 129 130 134
137 110 107 132 154 163 163 164 169 171 172 174 173 168 167 173 176 170 170 174 170 168 169 163 168 167 161 158 158 148 144 144 146 137 129 100 7 2 28 78 122 122 129
170 151 127 131 143 169 179 178 175 176 176 167 146 126 107 113 167 186 191 184 174 173 171 171 169 171 169 171 171 165 154 162 166 148 148 154 196 242 324 323 104 128 138
152 141 127 120 154 183 181 177 173 174 173 166 168 169 176 186 196 189 190 185 177 176 177 177 176 174 173 173 178 173 162 161 168 155 115 133 149 156 192 302 312 238 197
118 127 140 161 131 121 146 173 167 177 176 176 181 181 186 188 177 173 180 188 186 181 180 177 175 177 176 176 175 171 166 168 170 169 156 121 96 121 152 208 262 298 282
38 52 57 74 68 68 113 150 165 182 186 182 184 189 187 182 178 186 189 194 191 187 184 178 176 180 178 177 178 176 174 175 169 167 164 163 163 174 157 178 220 247 273
48 45 48 44 37 39 78 162 176 191 196 192 195 197 195 191 193 194 195 194 194 198 198 188 182 182 181 176 170 173 181 179 174 175 179 176 177 160 156 156 177 230 270
38 44 49 50 32 21 19 224 198 201 201 203 210 204 198 198 201 198 196 197 201 203 194 187 184 184 181 179 173 176 183 181 181 183 179 177 184 167 167 165 160 176 261
22 22 19 21 13 4 349 299 226 219 214 214 211 210 205 200 199 196 194 199 200 197 189 187 186 184 182 182 177 183 184 181 187 186 182 179 185 180 178 167 166 166 203
19 17 11 4 360 2 353 346 344 263 246 224 215 219 213 204 198 194 198 198 196 190 190 193 190 186 184 182 182 185 182 182 192 187 181 185 185 181 177 176 177 174 183
7 4 359 355 0 8 10 0 350 346 312 263 231 220 220 203 198 201 204 197 193 189 192 197 194 191 190 186 187 190 184 186 189 188 187 194 184 183 182 176 179 183 177
8 4 3 4 4 4 359 350 341 338 316 296 254 232 222 205 201 205 206 196 193 191 189 192 195 193 192 191 189 190 188 189 193 194 190 197 188 188 190 188 193 194 188
7 8 9 5 359 352 346 338 333 332 321 301 258 248 227 210 207 208 203 195 192 191 185 186 195 195 193 192 192 189 190 194 196 195 194 197 187 197 200 197 199 198 192
7 6 3 358 356 351 345 339 337 337 323 310 290 268 243 221 212 210 200 193 188 187 186 188 192 191 189 190 189 184 186 191 195 196 198 199 197 199 199 199 200 190 182
4 1 355 349 349 350 347 341 335 335 329 320 306 292 273 236 208 205 200 190 186 188 186 185 189 188 189 192 188 187 188 191 196 200 205 205 201 201 203 201 196 188 188
356 353 350 347 344 342 339 337 330 330 334 331 313 308 306 276 218 201 185 177 180 183 185 186 189 194 199 192 192 191 191 196 199 204 209 210 205 204 206 206 202 195 193
346 348 345 341 335 331 331 333 326 331 335 328 320 316 300 280 243 210 181 176 179 175 183 188 190 198 196 191 195 195 192 196 203 204 203 209 211 202 196 200 204 212 212
339 340 341 340 337 333 331 332 336 344 341 336 336 331 303 266 235 188 182 183 173 170 183 187 191 198 202 193 196 192 190 197 206 206 203 205 208 203 189 185 200 216 222
334 334 334 334 336 336 333 338 349 354 354 345 336 324 300 251 191 186 190 179 163 163 177 181 183 196 211 200 196 189 186 199 209 210 204 201 205 203 192 187 196 215 233
342 341 341 345 345 340 340 350 355 359 350 334 321 323 313 190 172 202 202 161 149 156 154 154 168 186 209 203 197 191 189 198 204 205 208 210 208 203 200 198 196 211 224
342 344 347 348 344 342 350 358 357 349 336 333 338 347 353 1 105 68 50 125 130 130 132 135 136 157 190 201 200 199 196 199 201 203 213 218 209 207 206 206 207 212 206
350 356 355 348 345 349 358 1 353 342 342 350 0 5 7 5 27 78 72 91 122 127 125 124 123 137 194 208 200 203 213 209 201 205 210 210 200 202 204 207 201 196 189
351 355 355 351 351 354 359 356 347 348 352 4 7 6 13 17 30 65 97 106 125 127 127 136 153 191 47 189 193 192 197 201 200 197 188 183 183 183 189 192 195 188 184
347 353 357 356 352 351 355 351 346 351 0 4 5 7 11 10 15 19 29 79 143 152 153 157 162 139 80 279 255 207 181 178 180 168 160 158 154 153 163 170 182 180 189
344 351 353 349 345 349 354 353 352 357 5 6 5 6 6 5 12 15 17 21 360 246 173 180 178 178 222 244 214 175 191 195 175 145 132 129 134 140 135 127 132 143 152
341 348 349 346 345 351 353 353 353 0 9 7 7 7 7 8 10 14 17 31 41 40 43 48 80 325 245 245 184 178 183 165 148 130 137 152 161 171 174 171 170 180 192
Height
1480 1482 1484 1486 1488 1490 1493 1495 1498 1500 1502 1504 1505 1507 1509 1511 1513 1515 1517 1518 1520 1522 1524 1526 1528 1529 1531 1533 1535 1537 1539 1540 1542 1544 1546 1547 1548 1548 1549 1550 1551 1551 1552
1477 1479 1481 1483 1485 1487 1490 1492 1494 1496 1499 1501 1503 1504 1506 1508 1510 1512 1514 1516 1517 1519 1521 1523 1525 1527 1528 1530 1532 1534 1535 1537 1539 1541 1543 1545 1547 1546 1547 1548 1549 1550 1550
1474 1476 1478 1480 1482 1485 1487 1489 1491 1493 1495 1498 1500 1501 1503 1505 1507 1508 1510 1512 1514 1516 1518 1520 1522 1524 1525 1527 1528 1530 1532 1534 1536 1539 1541 1542 1542 1543 1545 1545 1546 1547 1548
1473 1474 1476 1478 1480 1482 1484 1486 1488 1490 1492 1494 1496 1497 1499 1500 1502 1505 1507 1509 1511 1513 1515 1516 1518 1520 1522 1524 1525 1527 1529 1531 1532 1535 1537 1539 1540 1541 1541 1543 1543 1544 1545
1472 1473 1474 1476 1478 1479 1481 1483 1485 1487 1489 1491 1492 1494 1496 1497 1499 1502 1504 1505 1507 1509 1511 1513 1515 1517 1519 1520 1522 1524 1526 1527 1529 1531 1533 1535 1537 1538 1538 1538 1540 1541 1542
1471 1472 1473 1474 1475 1477 1478 1480 1482 1483 1485 1487 1489 1490 1492 1494 1496 1497 1499 1501 1503 1505 1507 1509 1511 1513 1515 1517 1519 1520 1522 1524 1526 1528 1530 1531 1533 1534 1535 1535 1536 1537 1539
1470 1470 1471 1472 1473 1474 1475 1477 1478 1480 1482 1483 1485 1486 1488 1490 1492 1493 1495 1497 1499 1501 1503 1505 1507 1509 1511 1513 1515 1517 1519 1520 1522 1524 1526 1528 1530 1531 1532 1533 1533 1534 1535
1470 1470 1470 1471 1471 1472 1473 1474 1475 1477 1478 1480 1481 1483 1485 1486 1488 1490 1491 1493 1495 1497 1499 1501 1503 1505 1507 1509 1511 1513 1515 1517 1518 1520 1522 1524 1526 1528 1529 1530 1531 1531 1531
1469 1470 1470 1470 1470 1470 1471 1472 1472 1473 1475 1476 1477 1479 1480 1482 1484 1486 1487 1489 1491 1493 1495 1497 1499 1501 1503 1505 1507 1509 1511 1513 1515 1516 1518 1520 1522 1524 1525 1526 1527 1528 1528
1470 1470 1469 1469 1469 1469 1469 1470 1470 1470 1471 1473 1474 1475 1476 1478 1480 1482 1483 1485 1487 1489 1490 1492 1494 1496 1498 1501 1503 1505 1507 1509 1511 1512 1514 1516 1518 1519 1521 1522 1523 1524 1525
1471 1470 1469 1468 1468 1467 1467 1467 1467 1468 1468 1469 1470 1471 1473 1474 1476 1477 1479 1481 1482 1484 1486 1488 1490 1492 1494 1496 1499 1501 1503 1504 1506 1508 1510 1512 1514 1515 1516 1518 1519 1520 1521
1472 1470 1469 1468 1467 1466 1465 1465 1465 1465 1465 1466 1467 1468 1469 1470 1472 1473 1475 1476 1478 1480 1482 1484 1486 1488 1490 1492 1494 1496 1498 1500 1502 1503 1505 1507 1509 1510 1512 1513 1514 1515 1516
1472 1470 1468 1467 1466 1465 1464 1464 1463 1463 1463 1463 1463 1464 1465 1466 1468 1469 1471 1473 1474 1476 1478 1480 1481 1483 1485 1487 1489 1492 1494 1495 1497 1499 1501 1503 1504 1506 1507 1509 1510 1511 1512
1472 1470 1468 1467 1466 1464 1463 1462 1461 1461 1460 1460 1460 1460 1461 1462 1464 1465 1467 1469 1470 1472 1474 1475 1477 1479 1481 1483 1485 1487 1489 1491 1493 1495 1496 1498 1500 1501 1503 1504 1505 1506 1507
1471 1470 1468 1466 1464 1463 1462 1460 1459 1458 1457 1457 1457 1457 1458 1459 1460 1462 1463 1465 1466 1468 1470 1472 1473 1475 1477 1478 1480 1482 1484 1486 1488 1490 1492 1493 1495 1497 1499 1500 1501 1502 1503
1472 1470 1467 1465 1463 1462 1460 1458 1457 1456 1455 1454 1454 1454 1455 1456 1457 1458 1459 1461 1463 1464 1466 1468 1469 1471 1473 1474 1476 1478 1480 1482 1484 1486 1488 1489 1491 1492 1494 1496 1497 1498 1499
1472 1469 1467 1465 1462 1461 1459 1457 1455 1453 1452 1451 1451 1451 1452 1452 1453 1455 1456 1457 1459 1460 1462 1463 1465 1467 1468 1471 1472 1474 1476 1478 1480 1482 1483 1485 1487 1488 1490 1491 1492 1493 1494
1471 1468 1466 1464 1461 1459 1457 1455 1453 1451 1450 1449 1449 1449 1449 1449 1450 1451 1452 1454 1455 1457 1458 1459 1461 1463 1465 1467 1469 1470 1472 1474 1476 1477 1479 1481 1482 1484 1485 1487 1488 1488 1489
1470 1468 1465 1463 1460 1458 1456 1454 1451 1449 1448 1447 1446 1446 1446 1446 1447 1447 1449 1450 1451 1453 1454 1456 1458 1459 1461 1463 1465 1467 1468 1470 1471 1473 1475 1476 1478 1480 1481 1483 1483 1483 1484
1468 1466 1464 1461 1459 1457 1454 1452 1450 1448 1446 1446 1445 1444 1444 1444 1444 1445 1446 1447 1448 1449 1451 1452 1454 1456 1458 1459 1461 1463 1465 1466 1467 1468 1470 1472 1474 1475 1476 1478 1478 1479 1479
1467 1464 1462 1460 1458 1456 1453 1451 1449 1447 1446 1445 1443 1442 1442 1442 1442 1443 1444 1444 1445 1447 1448 1449 1451 1453 1454 1456 1457 1459 1460 1462 1463 1464 1466 1468 1469 1471 1472 1473 1474 1474 1476
1465 1463 1461 1459 1457 1455 1452 1450 1448 1446 1445 1443 1442 1440 1440 1440 1441 1441 1442 1442 1443 1444 1445 1446 1448 1449 1451 1452 1454 1455 1457 1458 1460 1461 1462 1464 1465 1466 1467 1468 1469 1470 1471
1464 1462 1460 1458 1456 1454 1452 1449 1447 1446 1444 1442 1441 1439 1439 1439 1439 1440 1440 1440 1441 1442 1443 1444 1445 1446 1448 1450 1451 1452 1453 1454 1456 1457 1458 1459 1460 1461 1463 1464 1465 1465 1466
1463 1461 1459 1457 1455 1453 1451 1449 1447 1445 1443 1442 1440 1439 1438 1438 1438 1438 1439 1439 1440 1441 1441 1443 1443 1444 1445 1447 1448 1449 1450 1451 1452 1453 1454 1455 1456 1457 1458 1459 1460 1461 1462
1463 1461 1459 1456 1454 1452 1450 1449 1447 1445 1443 1441 1440 1439 1439 1438 1438 1438 1438 1439 1439 1440 1441 1441 1442 1443 1443 1445 1446 1446 1447 1448 1449 1450 1450 1451 1452 1453 1454 1455 1456 1457 1457
1463 1460 1458 1456 1453 1451 1450 1448 1447 1445 1443 1441 1440 1440 1439 1438 1438 1437 1438 1438 1439 1439 1440 1441 1441 1441 1442 1443 1444 1444 1446 1446 1447 1447 1447 1448 1449 1450 1451 1452 1452 1453 1454